Flagstaff, AZ

3:51 AM MST on May 28, 2017 (GMT -0700)
Flagstaff Pulliam

Weather History for KFLG - September, 2015

Change the Weather History Date:

Sunday, September 6, 2015

  Actual Average Record
Temperature  
Mean Temperature 60 °F 61 °F  
Max Temperature 72 °F 76 °F 87 °F (1977)
Min Temperature 48 °F 45 °F 33 °F (1985)
Degree Days  
Heating Degree Days 5 5  
Month to date heating degree days 23 24  
Since 1 July heating degree days 96 112  
Cooling Degree Days 0 0  
Month to date cooling degree days 0 0  
Year to date cooling degree days 115 114  
Growing Degree Days 10 (Base 50)    
Moisture  
Dew Point 52 °F    
Average Humidity 72    
Maximum Humidity 100    
Minimum Humidity 44    
Precipitation  
Precipitation 0.02 in 0.08 in 0.82 in (2002)
Month to date precipitation 0.55 0.54  
Year to date precipitation 18.97 14.73  
Snow  
Snow 0.00 in 0.00 in 0.00 in (2002)
Month to date snowfall 0.0 0.0  
Since 1 July snowfall 0.0 0.0  
Snow Depth 0.00 in    
Sea Level Pressure  
Sea Level Pressure 30.07 in    
Wind  
Wind Speed 4 mph (South)    
Max Wind Speed 16 mph    
Max Gust Speed 20 mph    
Visibility 10 miles    
Events      
T = Trace of Precipitation, MM = Missing Value Source: NWS Daily Summary

Daily Weather History Graph

Daily Weather History Graph

Search for Another Location

Airport or City:

Trip Planner

Search our weather history database for the weather conditions in past years. The results will help you decide how hot, cold, wet, or windy it might be!

Date:

Astronomy

Sep. 06, 2015 Rise Set
Actual Time 6:02 AM MST 6:46 PM MST
Civil Twilight 5:37 AM MST 7:12 PM MST
Nautical Twilight 5:06 AM MST 7:42 PM MST
Astronomical Twilight 4:35 AM MST 8:13 PM MST
Moon 12:09 AM MST (9/6) 2:25 PM MST (9/6)
Length of Visible Light 13h 35m
Length of Day
12h 43m
Waning Crescent, 36% of the Moon is Illuminated
Sep 6
Waning Crescent
Sep 12
New
Sep 21
First Quarter
Sep 27
Full
Oct 4
Last Quarter

Hourly Weather History & Observations

Time (MST) Temp. Dew Point Humidity Pressure Visibility Wind Dir Wind Speed Gust Speed Precip Events Conditions
12:57 AM 53.1 °F 53.1 °F 100% 30.04 in 10.0 mi Calm Calm - N/A   Scattered Clouds
1:57 AM 52.0 °F 52.0 °F 100% 30.08 in 10.0 mi Calm Calm - N/A   Mostly Cloudy
2:57 AM 52.0 °F 52.0 °F 100% 30.08 in 10.0 mi SW 5.8 mph - N/A   Mostly Cloudy
3:57 AM 52.0 °F 52.0 °F 100% 30.09 in 10.0 mi Calm Calm - N/A   Overcast
4:57 AM 48.9 °F 48.9 °F 100% 30.08 in 10.0 mi Calm Calm - N/A   Clear
5:57 AM 48.0 °F 48.0 °F 100% 30.10 in 10.0 mi Calm Calm - N/A   Clear
6:57 AM 50.0 °F 50.0 °F 100% 30.12 in 10.0 mi Calm Calm - N/A   Clear
7:57 AM 57.9 °F 54.0 °F 87% 30.11 in 10.0 mi NE 3.5 mph - N/A   Clear
8:57 AM 61.0 °F 53.1 °F 75% 30.11 in 10.0 mi East 4.6 mph - N/A   Overcast
9:57 AM 64.9 °F 52.0 °F 63% 30.09 in 10.0 mi East 9.2 mph - N/A   Overcast
10:57 AM 66.0 °F 51.1 °F 59% 30.09 in 10.0 mi Variable 5.8 mph - N/A   Mostly Cloudy
11:57 AM 68.0 °F 51.1 °F 55% 30.07 in 10.0 mi ESE 4.6 mph - N/A   Mostly Cloudy
12:57 PM 69.1 °F 52.0 °F 54% 30.06 in 10.0 mi Variable 5.8 mph - N/A   Overcast
1:57 PM 69.1 °F 52.0 °F 54% 30.06 in 10.0 mi SSW 13.8 mph - 0.00 in   Mostly Cloudy
2:57 PM 70.0 °F 52.0 °F 53% 30.03 in 10.0 mi SW 12.7 mph - N/A   Scattered Clouds
3:57 PM 72.0 °F 51.1 °F 48% 30.01 in 10.0 mi SSW 13.8 mph 18.4 mph N/A   Partly Cloudy
4:57 PM 71.1 °F 48.9 °F 45% 30.02 in 10.0 mi WSW 12.7 mph - N/A   Clear
5:57 PM 69.1 °F 51.1 °F 53% 30.02 in 10.0 mi SSW 9.2 mph - N/A   Partly Cloudy
6:57 PM 64.0 °F 53.1 °F 67% 30.04 in 10.0 mi Calm Calm - N/A   Scattered Clouds
7:57 PM 61.0 °F 54.0 °F 78% 30.03 in 10.0 mi Calm Calm - N/A   Overcast
8:57 PM 57.0 °F 55.0 °F 93% 30.06 in 10.0 mi Calm Calm - 0.02 in   Partly Cloudy
9:57 PM 55.0 °F 54.0 °F 96% 30.06 in 10.0 mi Calm Calm - N/A   Clear
10:57 PM 54.0 °F 53.1 °F 97% 30.07 in 10.0 mi Calm Calm - N/A   Clear
11:57 PM 51.1 °F 51.1 °F 100% 30.06 in 10.0 mi Calm Calm - N/A   Clear